Location: Laupheim
(48.2265°N, 9.8829°E)
Time: 23:34:44
(UTC+02:00)

Envisat - Visible Passes

Search period start: 22 May 2018 00:00
Search period end: 01 June 2018 00:00
Orbit: 764 x 766 km, 98.2° (Epoch: 22 May)

Date Brightness Start Highest point End Pass type
(mag) Time Alt. Az. Time Alt. Az. Time Alt. Az.
22 May 5.6 21:59:19 10° SW 22:02:31 17° W 22:05:44 10° NW visible
25 May 5.5 21:47:29 10° SW 21:51:14 21° W 21:55:00 10° NW visible
27 May 5.8 22:15:10 10° WSW 22:17:09 12° W 22:19:08 10° WNW visible
30 May 5.6 22:02:55 10° WSW 22:05:50 15° W 22:08:47 10° NW visible
